Weather History for Olympia, WA

Change the Weather History Date:

Wednesday, October 9, 2013

  Actual Average Record
Temperature  
Mean Temperature 47 °F 52 °F  
Max Temperature 58 °F 63 °F 81 °F (1996)
Min Temperature 36 °F 41 °F 28 °F (1985)
Degree Days  
Heating Degree Days 18 13  
Month to date heating degree days 123 105  
Since 1 July heating degree days 342 445  
Cooling Degree Days 0 0  
Month to date cooling degree days 0 0  
Year to date cooling degree days 147 106  
Moisture  
Dew Point 41 °F    
Average Humidity 81    
Maximum Humidity 100    
Minimum Humidity 61    
Precipitation  
Precipitation 0.00 in 0.11 in 1.06 in (1953)
Month to date precipitation 1.79 0.87  
Year to date precipitation 34.41 30.18  
Sea Level Pressure  
Sea Level Pressure 30.09 in    
Wind  
Wind Speed 1 mph (NE)    
Max Wind Speed 8 mph    
Max Gust Speed 10 mph    
Visibility 5 miles    
Events Fog    
T = Trace of Precipitation, MM = Missing Value Source: NWS Daily Summary

Daily Weather History Graph

Daily Weather History Graph

Search for Another Location

Airport:

Trip Planner

Search our weather history database for the weather conditions in past years. The results will help you decide how hot, cold, wet, or windy it might be!

Date:

Astronomy

Oct. 09, 2013 Rise Set
Actual Time 7:21 AM PDT 6:34 PM PDT
Civil Twilight 6:51 AM PDT 7:05 PM PDT
Nautical Twilight 6:16 AM PDT 7:40 PM PDT
Astronomical Twilight 5:40 AM PDT 8:15 PM PDT
Moon 12:37 PM PDT (10/9) 9:59 PM PDT (10/9)
Length of Visible Light 12h 14m
Length of Day
11h 13m
Waxing Crescent, 26% of the Moon is Illuminated
Oct 9
Waxing Crescent
Oct 11
First Quarter
Oct 18
Full
Oct 26
Last Quarter
Nov 3
New

Hourly Weather History & Observations

Time (PDT) Temp. Windchill Dew Point Humidity Pressure Visibility Wind Dir Wind Speed Gust Speed Precip Events Conditions
12:13 AM 39.9 °F - 39.9 °F 100% 30.09 in 0.5 mi Calm Calm - N/A Fog Fog
12:54 AM 39.9 °F - 39.0 °F 97% 30.09 in 0.2 mi Calm Calm - N/A Fog Fog
1:40 AM 37.0 °F - 37.0 °F 100% 30.11 in 0.5 mi Calm Calm - N/A Fog Fog
1:54 AM 36.0 °F - 36.0 °F 100% 30.11 in 0.5 mi Calm Calm - N/A Fog Fog
2:03 AM 37.9 °F 35.5 °F 37.0 °F 97% 30.11 in 0.2 mi SE 3.5 mph - N/A Fog Fog
2:54 AM 37.9 °F - 37.9 °F 100% 30.12 in 0.2 mi Calm Calm - N/A Fog Fog
3:54 AM 37.9 °F 35.5 °F 37.9 °F 100% 30.12 in 0.2 mi ESE 3.5 mph - N/A Fog Fog
4:54 AM 37.9 °F - 37.0 °F 97% 30.13 in 0.2 mi Calm Calm - N/A Fog Fog
5:54 AM 37.9 °F - 37.9 °F 100% 30.14 in 0.2 mi Calm Calm - N/A Fog Fog
6:54 AM 37.0 °F - 36.0 °F 96% 30.14 in 0.2 mi Calm Calm - N/A Fog Fog
7:05 AM 37.0 °F - 37.0 °F 100% 30.13 in 0.5 mi Calm Calm - N/A Fog Fog
7:34 AM 37.0 °F - 36.0 °F 96% 30.14 in 0.2 mi Calm Calm - N/A Fog Fog
7:54 AM 37.0 °F - 37.0 °F 100% 30.15 in 1.0 mi Calm Calm - N/A   Overcast
8:54 AM 39.9 °F - 39.9 °F 100% 30.16 in 0.2 mi Calm Calm - N/A Fog Fog
9:37 AM 44.1 °F - 43.0 °F 96% 30.14 in 0.5 mi Calm Calm - N/A Fog Fog
9:54 AM 45.0 °F - 44.1 °F 97% 30.14 in 1.0 mi Calm Calm - N/A   Mostly Cloudy
10:09 AM 46.0 °F - 44.1 °F 93% 30.14 in 3.0 mi Calm Calm - N/A   Mostly Cloudy
10:30 AM 46.9 °F - 45.0 °F 93% 30.14 in 6.0 mi NNW 4.6 mph - N/A   Mostly Cloudy
10:54 AM 48.9 °F - 45.0 °F 86% 30.14 in 10.0 mi NNE 4.6 mph - N/A   Mostly Cloudy
11:54 AM 51.1 °F - 45.0 °F 80% 30.13 in 10.0 mi Calm Calm - N/A   Mostly Cloudy
12:54 PM 52.0 °F - 44.1 °F 74% 30.10 in 10.0 mi Calm Calm - N/A   Mostly Cloudy
1:54 PM 54.0 °F - 44.1 °F 69% 30.08 in 10.0 mi NNW 5.8 mph - N/A   Mostly Cloudy
2:54 PM 55.9 °F - 43.0 °F 62% 30.06 in 10.0 mi ENE 6.9 mph - N/A   Partly Cloudy
3:54 PM 55.9 °F - 42.1 °F 60% 30.04 in 10.0 mi Calm Calm - N/A   Partly Cloudy
4:54 PM 55.9 °F - 42.1 °F 60% 30.03 in 10.0 mi Calm Calm - N/A   Partly Cloudy
5:54 PM 55.9 °F - 43.0 °F 62% 30.02 in 10.0 mi Calm Calm - N/A   Partly Cloudy
6:54 PM 48.9 °F - 44.1 °F 83% 30.01 in 10.0 mi Calm Calm - N/A   Clear
7:54 PM 46.9 °F - 44.1 °F 90% 30.01 in 10.0 mi Calm Calm - N/A   Clear
8:54 PM 46.0 °F - 44.1 °F 93% 30.00 in 10.0 mi Calm Calm - N/A   Clear
9:54 PM 46.0 °F - 44.1 °F 93% 30.00 in 8.0 mi Calm Calm - N/A   Partly Cloudy
10:54 PM 46.0 °F - 44.1 °F 93% 29.99 in 10.0 mi Calm Calm - N/A   Clear
11:54 PM 44.1 °F - 42.1 °F 93% 29.98 in 9.0 mi Calm Calm - N/A   Scattered Clouds